tititudorancea.com
Station Historical Data
Daily Summary for February 17, 2018 Units:  Metric    English   Both
« Previous Day
Next Day »
Daily Weekly Monthly Yearly Custom
  High: Low: Average:
Temperature: -17.8 °C 7.6 °C 18.2 °C
Dew Point: -17.8 °C 5.6 °C 8.7 °C
Humidity: Humidity % 28 % 59 %
Wind Speed: 0 km/h 0 km/h 6.4 km/h
Wind Gust: 0 km/h - -
Wind:- - WSW
Pressure: 0 hPa 1008.7 hPa -
Precipitation: 0 mm    
Historical Graphs
 
 
Ararat weather Find more about Weather in Ararat, AU


 



 


Tabular Data for February 17, 2018
Time Temperature Dew Point Pressure Wind Wind Speed Wind Gust Humidity Rainfall Rate (Hourly)
-17.8 °C -17.8 °C 0 hPa Calm     Humidity % 0 mm
00:44 12.3 °C 8.7 °C 1012.8 hPa South 6.3 km/h 9.7 km/h 79 % 0 mm
00:49 12.2 °C 8.6 °C 1012.8 hPa North 5 km/h 9.3 km/h 79 % 0 mm
00:54 12.1 °C 8.5 °C 1012.8 hPa South 4 km/h 5.6 km/h 79 % 0 mm
00:59 11.9 °C 8.4 °C 1012.4 hPa South 2.9 km/h 5.6 km/h 79 % 0 mm
01:04 11.8 °C 8.4 °C 1012.4 hPa North 2.6 km/h 5.6 km/h 80 % 0 mm
01:10 11.7 °C 8.3 °C 1012.4 hPa South 4 km/h 5.6 km/h 80 % 0 mm
01:15 11.6 °C 8.4 °C 1012.4 hPa South 4 km/h 5.6 km/h 81 % 0 mm
01:20 11.4 °C 8.3 °C 1012.4 hPa North 5.5 km/h 7.4 km/h 81 % 0 mm
01:25 11.3 °C 8.4 °C 1012.4 hPa North 4.5 km/h 5.6 km/h 82 % 0 mm
01:30 11.3 °C 8.3 °C 1012.4 hPa South 5 km/h 7.4 km/h 82 % 0 mm
01:35 11.3 °C 8.5 °C 1012.4 hPa North 3.4 km/h 6.4 km/h 83 % 0 mm
01:40 11.3 °C 8.5 °C 1012.4 hPa North 4.7 km/h 5.6 km/h 83 % 0 mm
01:45 11.2 °C 8.4 °C 1012.4 hPa North 3.7 km/h 7.4 km/h 83 % 0 mm
01:50 11.2 °C 8.4 °C 1012.4 hPa South 3.5 km/h 5.6 km/h 83 % 0 mm
01:55 11.3 °C 8.5 °C 1012.4 hPa North 5.5 km/h 7.4 km/h 83 % 0 mm
02:00 11.3 °C 8.5 °C 1012.4 hPa North 3.2 km/h 5.6 km/h 83 % 0 mm
02:05 11.3 °C 8.5 °C 1012.1 hPa South 5.8 km/h 9.3 km/h 83 % 0 mm
02:10 11.2 °C 8.4 °C 1012.1 hPa North 5.3 km/h 5.6 km/h 83 % 0 mm
02:15 11.2 °C 8.4 °C 1012.1 hPa North 5.8 km/h 6.4 km/h 83 % 0 mm
02:20 11.1 °C 8.3 °C 1012.1 hPa South 4.3 km/h 5.6 km/h 83 % 0 mm
02:25 11.1 °C 8.3 °C 1012.1 hPa North 3.7 km/h 5.6 km/h 83 % 0 mm
02:30 11.1 °C 8.3 °C 1012.1 hPa North 4 km/h 6.4 km/h 83 % 0 mm
02:35 11.1 °C 8.4 °C 1012.1 hPa North 2.7 km/h 6.4 km/h 84 % 0 mm
02:40 11.1 °C 8.4 °C 1011.7 hPa South 5.1 km/h 5.6 km/h 84 % 0 mm
02:45 11 °C 8.4 °C 1011.7 hPa South 1.9 km/h 5.6 km/h 84 % 0 mm
02:50 11 °C 8.4 °C 1011.7 hPa South 5 km/h 7.4 km/h 84 % 0 mm
02:55 11 °C 8.4 °C 1011.7 hPa North 4.5 km/h 5.6 km/h 84 % 0 mm
03:00 11 °C 8.4 °C 1011.7 hPa South 1.9 km/h 3.7 km/h 84 % 0 mm
03:05 11 °C 8.4 °C 1011.4 hPa South 3.5 km/h 5.6 km/h 84 % 0 mm
03:10 10.9 °C 8.3 °C 1011.7 hPa South 3.7 km/h 5.6 km/h 84 % 0 mm
03:15 10.9 °C 8.4 °C 1011.7 hPa South 3.2 km/h 5.6 km/h 85 % 0 mm
03:20 10.9 °C 8.3 °C 1011.7 hPa North 4.3 km/h 5.6 km/h 84 % 0 mm
03:25 10.8 °C 8.4 °C 1011.4 hPa South 3.4 km/h 5.6 km/h 85 % 0 mm
03:30 10.8 °C 8.3 °C 1011.7 hPa South 4.5 km/h 7.4 km/h 85 % 0 mm
03:35 10.8 °C 8.3 °C 1011.7 hPa South 3.4 km/h 3.7 km/h 85 % 0 mm
03:40 10.7 °C 8.3 °C 1011.4 hPa South 2.1 km/h 5.6 km/h 85 % 0 mm
03:45 10.7 °C 8.2 °C 1011.4 hPa North 1.8 km/h 3.7 km/h 85 % 0 mm
03:50 10.6 °C 8.2 °C 1011.1 hPa South 0.6 km/h 5.6 km/h 85 % 0 mm
03:55 10.6 °C 8.1 °C 1011.4 hPa South 0.5 km/h 1.9 km/h 85 % 0 mm
04:00 10.4 °C 8.1 °C 1011.4 hPa Calm     85 % 0 mm
04:05 10.3 °C 7.9 °C 1011.4 hPa South 1.9 km/h 3.7 km/h 85 % 0 mm
04:10 10.3 °C 7.9 °C 1011.4 hPa North 2.1 km/h 3.7 km/h 85 % 0 mm
04:15 10.2 °C 8 °C 1011.4 hPa North 2.7 km/h 3.7 km/h 86 % 0 mm
04:20 10.2 °C 7.9 °C 1011.4 hPa North 3.9 km/h 5.6 km/h 86 % 0 mm
04:25 10.2 °C 8.1 °C 1011.4 hPa North 2.4 km/h 5.6 km/h 87 % 0 mm
04:30 10.1 °C 8.1 °C 1011.4 hPa North 2.6 km/h 3.7 km/h 87 % 0 mm
04:35 10.1 °C 8.1 °C 1011.4 hPa South 0.3 km/h 1.9 km/h 87 % 0 mm
04:40 10.1 °C 8 °C 1011.4 hPa South 0.5 km/h 3.7 km/h 87 % 0 mm
04:45 9.9 °C 7.9 °C 1011.4 hPa Calm     87 % 0 mm
04:50 9.9 °C 7.8 °C 1011.4 hPa Calm     87 % 0 mm
04:55 9.8 °C 7.7 °C 1011.4 hPa Calm     87 % 0 mm
05:00 9.7 °C 7.8 °C 1011.1 hPa Calm     88 % 0 mm
05:05 9.7 °C 7.6 °C 1011.1 hPa Calm     87 % 0 mm
05:10 9.5 °C 7.4 °C 1011.1 hPa Calm     87 % 0 mm
05:15 9.2 °C 7.2 °C 1011.1 hPa Calm     87 % 0 mm
05:20 9.1 °C 7.2 °C 1011.1 hPa Calm     88 % 0 mm
05:25 9 °C 7.1 °C 1011.1 hPa Calm     88 % 0 mm
05:30 8.9 °C 7.1 °C 1011.1 hPa Calm     88 % 0 mm
05:35 8.8 °C 7.1 °C 1011.1 hPa Calm     89 % 0 mm
05:40 8.7 °C 7 °C 1011.1 hPa Calm     89 % 0 mm
05:45 8.6 °C 6.7 °C 1011.1 hPa Calm     88 % 0 mm
05:50 8.4 °C 6.6 °C 1011.1 hPa Calm     88 % 0 mm
05:55 8.3 °C 6.6 °C 1011.1 hPa Calm     89 % 0 mm
06:00 8.3 °C 6.6 °C 1011.1 hPa Calm     89 % 0 mm
06:05 8.1 °C 6.4 °C 1011.1 hPa Calm     89 % 0 mm
06:10 8.1 °C 6.4 °C 1011.1 hPa Calm     89 % 0 mm
06:15 8.1 °C 6.6 °C 1011.4 hPa Calm     90 % 0 mm
06:20 8.3 °C 6.9 °C 1011.1 hPa Calm     91 % 0 mm
06:25 8.4 °C 7.1 °C 1011.1 hPa Calm     91 % 0 mm
06:30 8.5 °C 7.1 °C 1011.4 hPa Calm     91 % 0 mm
06:35 8.5 °C 7.1 °C 1011.4 hPa Calm     91 % 0 mm
06:40 8.6 °C 7.2 °C 1011.1 hPa Calm     91 % 0 mm
06:45 8.5 °C 7.1 °C 1011.1 hPa Calm     91 % 0 mm
06:50 8.4 °C 7.1 °C 1011.1 hPa Calm     91 % 0 mm
06:55 8.4 °C 7 °C 1011.1 hPa Calm     91 % 0 mm
07:00 8.2 °C 6.6 °C 1011.1 hPa Calm     90 % 0 mm
07:05 7.9 °C 6.4 °C 1011.4 hPa Calm     90 % 0 mm
07:10 7.7 °C 6.2 °C 1011.4 hPa Calm     90 % 0 mm
07:15 7.6 °C 6.2 °C 1011.4 hPa Calm     91 % 0 mm
07:20 7.6 °C 6.2 °C 1011.4 hPa Calm     91 % 0 mm
07:25 7.6 °C 6.2 °C 1011.7 hPa Calm     91 % 0 mm
07:30 7.6 °C 6.2 °C 1011.7 hPa Calm     91 % 0 mm
07:35 7.7 °C 6.3 °C 1011.7 hPa Calm     91 % 0 mm
07:40 7.8 °C 6.6 °C 1011.7 hPa Calm     92 % 0 mm
07:45 7.9 °C 6.7 °C 1011.7 hPa Calm     92 % 0 mm
07:50 8.2 °C 6.9 °C 1011.7 hPa Calm     92 % 0 mm
07:55 8.3 °C 7.1 °C 1012.1 hPa Calm     92 % 0 mm
08:00 8.7 °C 7.7 °C 1012.1 hPa Calm     93 % 0 mm
08:05 9.2 °C 8.2 °C 1012.4 hPa Calm     93 % 0 mm
08:10 9.6 °C 8.6 °C 1012.4 hPa Calm     93 % 0 mm
08:15 10.2 °C 9.1 °C 1012.4 hPa Calm     93 % 0 mm
08:21 10.7 °C 9.4 °C 1012.8 hPa Calm     92 % 0 mm
08:26 11.1 °C 9.7 °C 1012.8 hPa Calm     91 % 0 mm
08:31 11.4 °C 9.7 °C 1012.8 hPa Calm     89 % 0 mm
08:32 11.6 °C 9.8 °C 1012.8 hPa Calm     89 % 0 mm
08:37 12.1 °C 10.2 °C 1012.8 hPa Calm     88 % 0 mm
08:43 12.8 °C 10.5 °C 1012.8 hPa Calm   1.6 km/h 86 % 0 mm
08:48 13.3 °C 10.5 °C 1012.8 hPa North 2.3 km/h 5.6 km/h 83 % 0 mm
08:53 13.7 °C 10.5 °C 1012.8 hPa North 4 km/h 5.6 km/h 81 % 0 mm
08:58 13.8 °C 10.3 °C 1012.8 hPa South 0.2 km/h 3.7 km/h 79 % 0 mm
09:03 13.9 °C 10.3 °C 1012.8 hPa North 2.4 km/h 3.7 km/h 79 % 0 mm
09:08 13.9 °C 10.3 °C 1012.8 hPa South 2.1 km/h 3.7 km/h 79 % 0 mm
09:13 14.1 °C 10.4 °C 1012.8 hPa South 1.6 km/h 5.6 km/h 79 % 0 mm
09:18 14.4 °C 10.8 °C 1012.4 hPa North 2.1 km/h 3.7 km/h 79 % 0 mm
09:23 15.1 °C 10.9 °C 1012.4 hPa Calm   1.9 km/h 76 % 0 mm
09:28 15.6 °C 11.2 °C 1012.4 hPa Calm     75 % 0 mm
09:33 16.3 °C 11 °C 1012.1 hPa Calm     71 % 0 mm
09:38 16.7 °C 11.2 °C 1012.1 hPa South 1.4 km/h 3.7 km/h 70 % 0 mm
09:43 17.5 °C 11.5 °C 1012.1 hPa South 1.6 km/h 3.7 km/h 68 % 0 mm
09:48 17.8 °C 10.7 °C 1012.1 hPa South 3.1 km/h 5.6 km/h 63 % 0 mm
09:53 17.8 °C 10.7 °C 1012.1 hPa South 1 km/h 3.7 km/h 63 % 0 mm
09:58 18.2 °C 10.8 °C 1012.1 hPa South 5.5 km/h 5.6 km/h 62 % 0 mm
10:03 18.5 °C 10.6 °C 1012.1 hPa South 1.4 km/h 5.6 km/h 60 % 0 mm
10:08 18.9 °C 10.7 °C 1012.1 hPa South 1.6 km/h 5.6 km/h 59 % 0 mm
10:13 19.5 °C 10.8 °C 1011.7 hPa South 3.7 km/h 3.7 km/h 57 % 0 mm
10:18 20.1 °C 9.9 °C 1012.1 hPa North 12.7 km/h 16.7 km/h 52 % 0 mm
10:23 20.3 °C 9.5 °C 1011.7 hPa North 9.8 km/h 13 km/h 50 % 0 mm
10:28 20.4 °C 8.7 °C 1011.7 hPa NW 14.2 km/h 22.2 km/h 47 % 0 mm
10:33 20.6 °C 8.9 °C 1011.7 hPa North 6.4 km/h 16.7 km/h 47 % 0 mm
10:38 20.9 °C 9.2 °C 1011.7 hPa NNW 9.5 km/h 18.5 km/h 47 % 0 mm
10:43 21 °C 9.3 °C 1011.7 hPa North 9.5 km/h 14.8 km/h 47 % 0 mm
10:48 21.2 °C 9.1 °C 1011.7 hPa North 11.1 km/h 14.8 km/h 46 % 0 mm
10:53 21.3 °C 9.2 °C 1011.7 hPa North 9.3 km/h 13 km/h 46 % 0 mm
10:58 21.6 °C 9.2 °C 1012.1 hPa NNW 10.5 km/h 13 km/h 45 % 0 mm
11:03 21.8 °C 9.4 °C 1011.7 hPa NW 7.6 km/h 16.7 km/h 45 % 0 mm
11:08 22.1 °C 9.2 °C 1012.1 hPa North 6.9 km/h 8 km/h 44 % 0 mm
11:13 21.9 °C 9.4 °C 1011.7 hPa North 7.7 km/h 16.7 km/h 45 % 0 mm
11:18 21.9 °C 9.4 °C 1011.7 hPa North 2.3 km/h 11.1 km/h 45 % 0 mm
11:23 22.2 °C 9 °C 1011.7 hPa NNW 10 km/h 16.7 km/h 43 % 0 mm
11:28 22.6 °C 8.6 °C 1011.7 hPa WNW 14.5 km/h 20.4 km/h 41 % 0 mm
11:33 23.2 °C 8.8 °C 1011.7 hPa NW 4.8 km/h 11.3 km/h 40 % 0 mm
11:38 23.1 °C 6.8 °C 1011.7 hPa NW 15.6 km/h 24.1 km/h 35 % 0 mm
11:43 22.7 °C 5.6 °C 1011.7 hPa WNW 24.3 km/h 27.8 km/h 33 % 0 mm
11:48 22.7 °C 6.4 °C 1012.1 hPa North 15.3 km/h 24.1 km/h 35 % 0 mm
11:53 23 °C 7.5 °C 1011.7 hPa WNW 12.9 km/h 18.5 km/h 37 % 0 mm
11:58 23.5 °C 7.2 °C 1011.7 hPa North 17.4 km/h 22.2 km/h 35 % 0 mm
12:03 23.2 °C 7.7 °C 1011.4 hPa NNW 13.8 km/h 20.4 km/h 37 % 0 mm
12:08 23.2 °C 8.4 °C 1011.4 hPa North 12.6 km/h 18.5 km/h 39 % 0 mm
12:13 23.4 °C 8.3 °C 1011.4 hPa North 13.4 km/h 16.7 km/h 38 % 0 mm
12:18 23.4 °C 8.7 °C 1011.4 hPa WNW 13.5 km/h 16.7 km/h 39 % 0 mm
12:23 23.6 °C 8.8 °C 1011.4 hPa NNW 13.5 km/h 24.1 km/h 39 % 0 mm
12:28 23.6 °C 8.8 °C 1011.4 hPa WNW 11.7 km/h 18.5 km/h 39 % 0 mm
12:33 23.5 °C 9.1 °C 1011.4 hPa WNW 14.6 km/h 16.7 km/h 40 % 0 mm
12:38 23.2 °C 9.6 °C 1011.1 hPa NW 17.9 km/h 25.9 km/h 42 % 0 mm
12:43 23.2 °C 9.6 °C 1011.1 hPa West 18.7 km/h 18.7 km/h 42 % 0 mm
12:48 23.8 °C 10.1 °C 1011.1 hPa WNW 13.8 km/h 19.3 km/h 42 % 0 mm
12:53 24 °C 9.9 °C 1011.1 hPa WNW 12.2 km/h 18.5 km/h 41 % 0 mm
12:58 24.1 °C 10 °C 1011.1 hPa NNW 10.6 km/h 25.9 km/h 41 % 0 mm
13:03 24.3 °C 9.8 °C 1011.1 hPa North 15.9 km/h 20.4 km/h 40 % 0 mm
13:08 24.4 °C 9.9 °C 1010.7 hPa NW 17.9 km/h 22.2 km/h 40 % 0 mm
13:13 24.9 °C 10 °C 1010.7 hPa WNW 13.7 km/h 18.5 km/h 39 % 0 mm
13:18 25 °C 9.7 °C 1010.7 hPa North 13.5 km/h 20.4 km/h 38 % 0 mm
13:23 25.1 °C 10.2 °C 1010.7 hPa North 11.9 km/h 18.5 km/h 39 % 0 mm
13:28 25.2 °C 9.8 °C 1010.4 hPa NNW 8.2 km/h 20.4 km/h 38 % 0 mm
13:33 25.3 °C 10.3 °C 1010.4 hPa North 7.9 km/h 11.3 km/h 39 % 0 mm
13:38 25.4 °C 10.1 °C 1010.4 hPa North 8.7 km/h 14.8 km/h 38 % 0 mm
13:43 25.7 °C 9.9 °C 1010.4 hPa NW 10.6 km/h 14.8 km/h 37 % 0 mm
13:48 25.3 °C 10 °C 1010 hPa NNW 2.1 km/h 9.3 km/h 38 % 0 mm
13:53 25.3 °C 9.9 °C 1010 hPa NNW 4.2 km/h 6.4 km/h 38 % 0 mm
13:58 25.9 °C 9.7 °C 1010 hPa NNW 7.1 km/h 9.7 km/h 36 % 0 mm
14:03 26.3 °C 10 °C 1010 hPa NNE 9 km/h 14.8 km/h 36 % 0 mm
14:08 26.1 °C 9.9 °C 1010 hPa WNW 11.1 km/h 13 km/h 36 % 0 mm
14:13 26.1 °C 9.4 °C 1010 hPa WNW 10 km/h 20.9 km/h 35 % 0 mm
14:19 26.2 °C 9.6 °C 1010 hPa NW 8.7 km/h 24.1 km/h 35 % 0 mm
14:24 26.4 °C 9.3 °C 1010 hPa NNW 9 km/h 20.4 km/h 34 % 0 mm
14:29 26.4 °C 9.3 °C 1010 hPa North 8.7 km/h 18.5 km/h 34 % 0 mm
14:34 26.5 °C 8.9 °C 1010 hPa WNW 16.1 km/h 22.2 km/h 33 % 0 mm
14:39 26.4 °C 8.8 °C 1010 hPa North 13.7 km/h 18.5 km/h 33 % 0 mm
14:43 26.1 °C 8.6 °C 1010 hPa NNW 2.7 km/h 8 km/h 33 % 0 mm
14:49 26.6 °C 8.9 °C 1010 hPa North 15.1 km/h 24.1 km/h 33 % 0 mm
14:54 26.8 °C 9.2 °C 1010 hPa West 10.9 km/h 16.7 km/h 33 % 0 mm
14:58 27 °C 8.9 °C 1010 hPa WSW 7.7 km/h 11.3 km/h 32 % 0 mm
15:04 26.7 °C 9.1 °C 1009.7 hPa NW 7.2 km/h 11.1 km/h 33 % 0 mm
15:09 26.4 °C 8.9 °C 1009.7 hPa North 1.8 km/h 8 km/h 33 % 0 mm
15:14 26.9 °C 9.3 °C 1009.7 hPa NW 6.6 km/h 8 km/h 33 % 0 mm
15:19 27.4 °C 8.8 °C 1009.7 hPa WNW 9.3 km/h 11.3 km/h 31 % 0 mm
15:24 27.6 °C 8.9 °C 1009.7 hPa West 10.8 km/h 14.8 km/h 31 % 0 mm
15:29 27.7 °C 9.1 °C 1009.4 hPa West 4.7 km/h 11.1 km/h 31 % 0 mm
15:34 27.6 °C 8.9 °C 1009.4 hPa WNW 2.6 km/h 5.6 km/h 31 % 0 mm
15:39 27.9 °C 9.2 °C 1009 hPa WNW 8 km/h 9.3 km/h 31 % 0 mm
15:44 27.6 °C 8.9 °C 1009 hPa NNW 6.8 km/h 18.5 km/h 31 % 0 mm
15:49 27.8 °C 8.1 °C 1009 hPa SW 7.6 km/h 18.5 km/h 29 % 0 mm
15:54 27.9 °C 7.7 °C 1009 hPa West 3.9 km/h 11.1 km/h 28 % 0 mm
15:59 27.9 °C 7.7 °C 1009 hPa WSW 1.6 km/h 11.1 km/h 28 % 0 mm
16:04 27.7 °C 8 °C 1009.4 hPa West 12.9 km/h 12.9 km/h 29 % 0 mm
16:09 28 °C 7.8 °C 1009 hPa WNW 9.2 km/h 16.7 km/h 28 % 0 mm
16:14 28 °C 7.8 °C 1009 hPa SSW 12.6 km/h 17.7 km/h 28 % 0 mm
16:19 28 °C 7.8 °C 1009 hPa South 11.7 km/h 20.4 km/h 28 % 0 mm
16:24 28.1 °C 7.8 °C 1009 hPa South 2.9 km/h 7.4 km/h 28 % 0 mm
16:29 28.6 °C 8.3 °C 1009 hPa South 4.3 km/h 5.6 km/h 28 % 0 mm
16:34 28.6 °C 8.3 °C 1009 hPa SW 7.4 km/h 14.8 km/h 28 % 0 mm
16:39 28.3 °C 8.1 °C 1009 hPa SW 13.7 km/h 18.5 km/h 28 % 0 mm
16:44 28 °C 7.8 °C 1009 hPa SW 14.6 km/h 18.5 km/h 28 % 0 mm
16:49 27.7 °C 7.5 °C 1008.7 hPa WSW 7.4 km/h 13 km/h 28 % 0 mm
16:54 27.7 °C 8.1 °C 1008.7 hPa South 5.5 km/h 14.8 km/h 29 % 0 mm
16:59 27.8 °C 7.6 °C 1008.7 hPa SW 4.8 km/h 13 km/h 28 % 0 mm
17:04 28.1 °C 8.3 °C 1008.7 hPa SSE 9.3 km/h 13 km/h 29 % 0 mm
17:09 28.1 °C 7.8 °C 1008.7 hPa South 15.9 km/h 19.3 km/h 28 % 0 mm
17:14 27.7 °C 8.1 °C 1008.7 hPa SW 16.7 km/h 25.9 km/h 29 % 0 mm
17:19 27.7 °C 8 °C 1009 hPa SSW 16.1 km/h 25.7 km/h 29 % 0 mm
17:24 27.5 °C 7.9 °C 1009 hPa SSW 10.8 km/h 18.5 km/h 29 % 0 mm
17:29 27.6 °C 7.9 °C 1009 hPa SSW 14.2 km/h 18.5 km/h 29 % 0 mm
17:34 27.4 °C 7.8 °C 1009 hPa SW 12.9 km/h 19.3 km/h 29 % 0 mm
17:39 27.1 °C 7.5 °C 1009 hPa SW 11.7 km/h 16.7 km/h 29 % 0 mm
17:44 26.7 °C 7.7 °C 1009 hPa SSW 14.6 km/h 20.4 km/h 30 % 0 mm
17:49 26.5 °C 8 °C 1009 hPa SSW 15.9 km/h 24.1 km/h 31 % 0 mm
17:54 26.4 °C 7.9 °C 1009 hPa SSW 11.4 km/h 18.5 km/h 31 % 0 mm
17:59 26.7 °C 8.1 °C 1009 hPa North 16.6 km/h 29.6 km/h 31 % 0 mm
18:04 26.7 °C 7.7 °C 1009 hPa North 9.8 km/h 18.5 km/h 30 % 0 mm
18:09 27 °C 7.9 °C 1009 hPa SSW 15.9 km/h 20.4 km/h 30 % 0 mm
18:14 26.8 °C 7.7 °C 1009.4 hPa South 15.9 km/h 20.4 km/h 30 % 0 mm
18:19 26.6 °C 8.1 °C 1009 hPa SSE 12.7 km/h 18.5 km/h 31 % 0 mm
18:24 26.7 °C 8.1 °C 1009 hPa SSW 8.2 km/h 9.7 km/h 31 % 0 mm
18:34 26.4 °C 7.9 °C 1009 hPa South 11.1 km/h 11.1 km/h 31 % 0 mm
18:39 26.4 °C 7.9 °C 1009 hPa SSE 9.2 km/h 14.8 km/h 31 % 0 mm
18:44 26.3 °C 7.8 °C 1009 hPa South 8.9 km/h 16.7 km/h 31 % 0 mm
18:49 26.1 °C 7.7 °C 1009 hPa South 8.7 km/h 18.5 km/h 31 % 0 mm
18:54 26.2 °C 7.7 °C 1009 hPa North 10.3 km/h 12.9 km/h 31 % 0 mm
18:59 26.1 °C 7.6 °C 1009 hPa SSW 13.7 km/h 18.5 km/h 31 % 0 mm
19:04 25.9 °C 7.9 °C 1009 hPa SSW 8 km/h 13 km/h 32 % 0 mm
19:09 25.7 °C 7.8 °C 1009 hPa SSW 10.1 km/h 16.7 km/h 32 % 0 mm
19:14 25.7 °C 7.7 °C 1009 hPa SSW 12.1 km/h 18.5 km/h 32 % 0 mm
19:19 25.4 °C 7.6 °C 1009 hPa SSW 11.9 km/h 20.4 km/h 32 % 0 mm
19:24 25.3 °C 7.9 °C 1009 hPa SSW 6.9 km/h 14.8 km/h 33 % 0 mm
19:29 25.3 °C 7.8 °C 1009.4 hPa SSW 8.2 km/h 11.1 km/h 33 % 0 mm
19:34 25.2 °C 7.8 °C 1009.4 hPa SSW 8.4 km/h 14.8 km/h 33 % 0 mm
19:39 25.1 °C 7.7 °C 1009.4 hPa SSW 10.9 km/h 16.7 km/h 33 % 0 mm
19:45 24.9 °C 7.6 °C 1009.4 hPa SSW 4.2 km/h 7.4 km/h 33 % 0 mm
19:49 24.7 °C 7.8 °C 1009.4 hPa SSW 4.7 km/h 11.1 km/h 34 % 0 mm
19:55 24.5 °C 7.6 °C 1009.4 hPa SSW 4 km/h 5.6 km/h 34 % 0 mm
20:00 24.3 °C 7.8 °C 1009.4 hPa SSW 5 km/h 9.3 km/h 35 % 0 mm
20:05 24 °C 7.6 °C 1009.4 hPa SSW 6.1 km/h 9.3 km/h 35 % 0 mm
20:10 23.8 °C 8.2 °C 1009.7 hPa South 16.6 km/h 18.5 km/h 37 % 0 mm
20:15 23.2 °C 9.6 °C 1009.7 hPa SSW 11.3 km/h 18.5 km/h 42 % 0 mm
20:20 22.6 °C 9.7 °C 1009.7 hPa South 13.2 km/h 13.2 km/h 44 % 0 mm
20:25 22.2 °C 10 °C 1009.7 hPa South 12.4 km/h 20.4 km/h 46 % 0 mm
20:30 21.8 °C 9.9 °C 1009.7 hPa South 8.5 km/h 12.9 km/h 47 % 0 mm
20:35 21.6 °C 10.1 °C 1009.7 hPa South 6.6 km/h 11.1 km/h 48 % 0 mm
20:40 21.3 °C 10.1 °C 1010 hPa South 5.8 km/h 11.1 km/h 49 % 0 mm
20:45 21.1 °C 10.2 °C 1010 hPa South 5.5 km/h 11.1 km/h 50 % 0 mm
20:50 20.8 °C 10.3 °C 1010 hPa South 8.4 km/h 14.8 km/h 51 % 0 mm
20:55 20.7 °C 10.4 °C 1010 hPa South 6.9 km/h 11.1 km/h 52 % 0 mm
21:00 20.5 °C 10.3 °C 1010 hPa South 5.1 km/h 11.1 km/h 52 % 0 mm
21:05 20.3 °C 10.4 °C 1010 hPa South 6.1 km/h 11.1 km/h 53 % 0 mm
21:10 20.1 °C 10.2 °C 1010 hPa South 9.3 km/h 13 km/h 53 % 0 mm
21:15 20 °C 10.4 °C 1010 hPa South 3.1 km/h 11.1 km/h 54 % 0 mm
21:20 19.8 °C 10.2 °C 1010.4 hPa South 6 km/h 8 km/h 54 % 0 mm
21:25 19.6 °C 10.3 °C 1010.4 hPa South 9.2 km/h 13 km/h 55 % 0 mm
21:30 19.4 °C 10.4 °C 1010.4 hPa South 6.3 km/h 9.3 km/h 56 % 0 mm
21:35 19.3 °C 10.3 °C 1010.4 hPa South 0.2 km/h 3.7 km/h 56 % 0 mm
21:40 19.2 °C 10.2 °C 1010.4 hPa South 11.7 km/h 18.5 km/h 56 % 0 mm
21:45 19.1 °C 10.3 °C 1010.4 hPa South 9.7 km/h 13 km/h 57 % 0 mm
21:50 18.9 °C 10.5 °C 1010.4 hPa South 8.2 km/h 11.1 km/h 58 % 0 mm
21:55 18.9 °C 10.4 °C 1010.4 hPa South 7.7 km/h 11.1 km/h 58 % 0 mm
22:00 18.8 °C 10.3 °C 1010.4 hPa South 5.1 km/h 9.3 km/h 58 % 0 mm
22:05 18.7 °C 10.5 °C 1010.4 hPa South 9.3 km/h 16.7 km/h 59 % 0 mm
22:10 18.6 °C 10.4 °C 1010.7 hPa South 10 km/h 13 km/h 59 % 0 mm
22:15 18.5 °C 10.3 °C 1010.7 hPa South 7.6 km/h 11.1 km/h 59 % 0 mm
22:20 18.4 °C 10.5 °C 1010.7 hPa South 8.9 km/h 13 km/h 60 % 0 mm
22:25 18.3 °C 10.4 °C 1011.1 hPa South 9.5 km/h 16.7 km/h 60 % 0 mm
22:30 18.2 °C 10.3 °C 1010.7 hPa South 6.1 km/h 7.4 km/h 60 % 0 mm
22:35 18.1 °C 10.4 °C 1011.1 hPa South 9.2 km/h 11.1 km/h 61 % 0 mm
22:40 18 °C 10.4 °C 1011.1 hPa South 9.2 km/h 16.7 km/h 61 % 0 mm
22:45 17.9 °C 10.5 °C 1011.4 hPa SSW 9.3 km/h 14.8 km/h 62 % 0 mm
22:50 17.8 °C 10.4 °C 1011.4 hPa SSW 8.9 km/h 13 km/h 62 % 0 mm
22:55 17.7 °C 10.6 °C 1011.4 hPa SSW 6.1 km/h 7.4 km/h 63 % 0 mm
23:00 17.4 °C 10.3 °C 1011.4 hPa SSW 9.8 km/h 14.8 km/h 63 % 0 mm
23:05 17.3 °C 10.4 °C 1011.4 hPa SSW 4.8 km/h 8 km/h 64 % 0 mm
23:10 17.1 °C 10.4 °C 1011.4 hPa SSW 4.2 km/h 11.1 km/h 65 % 0 mm
23:15 16.8 °C 10.4 °C 1011.7 hPa SSW 7.7 km/h 14.8 km/h 66 % 0 mm
23:20 16.7 °C 10.6 °C 1011.4 hPa SSW 6.8 km/h 9.3 km/h 67 % 0 mm
23:25 16.6 °C 10.7 °C 1011.4 hPa SSW 8 km/h 16.7 km/h 68 % 0 mm
23:30 16.4 °C 10.7 °C 1011.4 hPa SSW 7.2 km/h 16.7 km/h 69 % 0 mm
23:35 16.3 °C 10.8 °C 1011.1 hPa North 8 km/h 16.7 km/h 70 % 0 mm
23:40 16.1 °C 10.8 °C 1011.1 hPa SSW 8.7 km/h 12.9 km/h 71 % 0 mm
23:45 16 °C 10.9 °C 1011.1 hPa SSW 6.9 km/h 14.8 km/h 72 % 0 mm
23:50 15.9 °C 11.1 °C 1011.1 hPa SSW 5.8 km/h 9.7 km/h 73 % 0 mm
23:55 15.8 °C 11.2 °C 1011.1 hPa North 10 km/h 14.8 km/h 74 % 0 mm
Ararat Weather
Compliments of Weather Underground - 2.25 mb
Click here to send mail.


ABOUT

Live weather data from Ararat, Victoria, Australia, 3377
Data uploaded from Cumulus every 5 minutes to Weather Underground.
This site then downloads the raw data for formatting and display.
Metric and imperial data can be displayed. Graphs and historical data available.
Includes Sun and Moon times and rain image live from BOM.

Check out Ararat Weather on Facebook, Twitter and Google +

Help support ongoing costs by checking out the ads





Follow @AraratWeather